Regional Weather Roundup
Issued by NWS

Home | Current Version | Previous Version | Text Only | Print | Product List | Glossary Off
Versions: 1 2 3 4 5 6 7 8 9 10 11 12 13 14 15 16 17 18 19 20 21 22 23 24 25 26 27 28 29 30 31 32 33 34 35 36 37 38 39 40 41 42 43 44 45 46 47 48 49 50

000
ASUS43 KTOP 191559
RWRKS

WEATHER ROUNDUP FOR KANSAS
NATIONAL WEATHER SERVICE GOODLAND KS
1000 AM CST FRI DEC 19 2014

NOTE:  "FAIR" INDICATES FEW OR NO CLOUDS BELOW 12,000 FEET WITH NO
SIGNIFICANT WEATHER AND/OR OBSTRUCTIONS TO VISIBILITY.

KSZ001>006-013>018-027>032-041>047-191700-
NORTHWEST KANSAS

CITY           SKY/WX    TMP DP  RH WIND       PRES   REMARKS
GOODLAND       CLOUDY    32  27  81 W10       30.14R WCI  24
HAYS           CLOUDY    36  27  69 S9        30.19R
HILL CITY      FOG       29  28  96 W3        30.17R VSB 1/4
RUSSELL        CLOUDY    33  32  96 S9        30.19R FOG
$$

KSZ061>065-074>080-084>089-191700-
SOUTHWEST KANSAS

CITY           SKY/WX    TMP DP  RH WIND       PRES   REMARKS
DODGE CITY     CLOUDY    35  33  92 S12       30.18S FOG     WCI  27
ELKHART          N/A    N/A N/A N/A MISG        N/A
GARDEN CITY    CLOUDY    33  31  92 SW8       30.17R
GREAT BEND     CLOUDY    34  28  80 S8        30.22R
LIBERAL        CLOUDY    37  32  81 S3        30.20R
$$

KSZ066>073-081>083-090>101-191700-
SOUTHEAST KANSAS

CITY           SKY/WX    TMP DP  RH WIND       PRES   REMARKS
CHANUTE        CLOUDY    35  33  92 N5        30.27S FOG
COFFEYVILLE    CLOUDY    37  34  89 VRB3      30.27R FOG
HUTCHINSON     CLOUDY    32  29  88 SE9       30.25R FOG
MEDICINE LODGE   N/A     33  32  96 S7        30.25R
NEWTON         CLOUDY    28  25  86 S7        30.27R
PARSONS        CLOUDY    37  34  89 N5        30.28S
WICHITA INTL   CLOUDY    32  29  88 S6        30.26R FOG
WICHITA JABRA  CLOUDY    31  30  96 S3        30.26R
WICHITA MCCONL CLOUDY    31  29  92 E2        30.27R
WINFIELD       CLOUDY    33  31  92 CALM      30.28R
$$

KSZ007>012-019>026-033>040-048>060-102>105-191700-
NORTHEAST KANSAS

CITY           SKY/WX    TMP DP  RH WIND       PRES   REMARKS
CONCORDIA      CLOUDY    31  29  92 S6        30.23R FOG
EMPORIA        CLOUDY    29  27  92 SE3       30.27S
LAWRENCE       CLOUDY    31  28  89 SE6       30.29R FOG
MANHATTAN      CLOUDY    31  30  96 S7        30.28R FOG
OLATHE IND     CLOUDY    30  29  96 S3        30.28R FOG
OLATHE EXE     CLOUDY    31  30  96 SE5       30.27R FOG
SALINA         CLOUDY    31  28  89 S9        30.26R
TOPEKA BILLARD CLOUDY    31  28  89 SE6       30.30R FOG
TOPEKA FORBES  CLOUDY    31  28  89 VRB3      30.28R FOG
$$



USA.gov is the U.S. government's official web portal to all federal, state and local government web resources and services.